Station Historical Data
Daily Summary for May 3, 2017 Units:  English    Metric   Both
« Previous Day
Next Day »
Daily Weekly Monthly Yearly Custom
  High: Low: Average:
Temperature: 53.3 °F 40.4 °F 46.9 °F
Dew Point: 41.4 °F 34.0 °F 37.3 °F
Humidity: 86% 56% 70%
Wind Speed: 14.0mph 0.0mph 5.5mph
Wind Gust: 20.0mph - -
Wind- - West
Pressure: 30.24 in 29.77 in -
Precipitation: 0.02 in    
Historical Graphs
 
 
Tabular Data for May 3, 2017
Time Temperature Dew Point Pressure Wind Wind Speed Wind Gust Humidity Rainfall Rate (Hourly)
00:00 45.9 °F 40.7 °F 29.77 in WSW 7.0 mph 16.0 mph 82% 0.00 in
00:05 45.8 °F 40.6 °F 29.77 in WNW 4.0 mph 18.0 mph 82% 0.00 in
00:10 45.8 °F 40.6 °F 29.77 in WSW 11.0 mph 17.0 mph 82% 0.00 in
00:15 45.7 °F 40.5 °F 29.77 in WSW 8.0 mph 17.0 mph 82% 0.00 in
00:20 45.7 °F 40.5 °F 29.77 in SSW 7.0 mph 17.0 mph 82% 0.00 in
00:25 45.7 °F 40.5 °F 29.77 in WSW 9.0 mph 17.0 mph 82% 0.00 in
00:30 45.7 °F 40.5 °F 29.77 in WSW 9.0 mph 16.0 mph 82% 0.00 in
00:35 45.7 °F 40.5 °F 29.77 in WSW 8.0 mph 15.0 mph 82% 0.00 in
00:40 45.6 °F 40.4 °F 29.78 in WSW 8.0 mph 15.0 mph 82% 0.00 in
00:45 45.6 °F 40.7 °F 29.78 in West 11.0 mph 20.0 mph 83% 0.00 in
00:50 45.5 °F 40.6 °F 29.78 in SW 8.0 mph 16.0 mph 83% 0.00 in
00:55 45.5 °F 40.6 °F 29.78 in WSW 8.0 mph 19.0 mph 83% 0.00 in
01:00 45.5 °F 40.6 °F 29.78 in West 5.0 mph 11.0 mph 83% 0.00 in
01:05 45.5 °F 40.6 °F 29.78 in WSW 8.0 mph 15.0 mph 83% 0.00 in
01:10 45.6 °F 40.7 °F 29.78 in West 8.0 mph 13.0 mph 83% 0.00 in
01:15 45.7 °F 40.5 °F 29.78 in West 2.0 mph 12.0 mph 82% 0.00 in
01:20 45.8 °F 40.6 °F 29.78 in West 6.0 mph 12.0 mph 82% 0.00 in
01:25 45.8 °F 40.3 °F 29.78 in West 5.0 mph 12.0 mph 81% 0.00 in
01:30 45.9 °F 39.8 °F 29.78 in West 6.0 mph 15.0 mph 79% 0.00 in
01:35 45.9 °F 39.1 °F 29.79 in West 6.0 mph 15.0 mph 77% 0.00 in
01:40 45.8 °F 38.7 °F 29.79 in West 6.0 mph 14.0 mph 76% 0.00 in
01:45 45.8 °F 38.7 °F 29.79 in West 11.0 mph 13.0 mph 76% 0.00 in
01:50 45.7 °F 38.2 °F 29.80 in West 5.0 mph 14.0 mph 75% 0.00 in
01:55 45.6 °F 38.5 °F 29.80 in West 7.0 mph 14.0 mph 76% 0.00 in
02:00 45.6 °F 38.5 °F 29.80 in West 6.0 mph 12.0 mph 76% 0.00 in
02:05 45.5 °F 38.4 °F 29.80 in West 6.0 mph 14.0 mph 76% 0.00 in
02:10 45.4 °F 38.3 °F 29.80 in WSW 9.0 mph 14.0 mph 76% 0.00 in
02:15 45.4 °F 38.3 °F 29.80 in West 7.0 mph 14.0 mph 76% 0.00 in
02:20 45.3 °F 38.2 °F 29.80 in WSW 3.0 mph 13.0 mph 76% 0.00 in
02:25 45.2 °F 38.1 °F 29.80 in NNW 7.0 mph 14.0 mph 76% 0.00 in
02:30 45.2 °F 37.7 °F 29.81 in West 6.0 mph 14.0 mph 75% 0.00 in
02:35 45.1 °F 37.6 °F 29.81 in West 6.0 mph 15.0 mph 75% 0.00 in
02:40 45.1 °F 38.0 °F 29.81 in West 6.0 mph 15.0 mph 76% 0.00 in
02:45 45.0 °F 37.9 °F 29.81 in WSW 3.0 mph 11.0 mph 76% 0.00 in
02:55 44.6 °F 37.2 °F 29.82 in SW 5.0 mph 16.0 mph 75% 0.00 in
03:00 44.5 °F 37.1 °F 29.82 in West 6.0 mph 17.0 mph 75% 0.00 in
03:10 44.3 °F 37.2 °F 29.82 in West 3.0 mph 14.0 mph 76% 0.00 in
03:15 44.3 °F 37.2 °F 29.82 in West 7.0 mph 9.0 mph 76% 0.00 in
03:20 44.3 °F 37.2 °F 29.83 in WNW 3.0 mph 11.0 mph 76% 0.00 in
03:25 44.2 °F 37.4 °F 29.83 in WNW 7.0 mph 10.0 mph 77% 0.00 in
03:30 44.1 °F 37.3 °F 29.83 in West 4.0 mph 12.0 mph 77% 0.00 in
03:35 44.1 °F 37.7 °F 29.84 in West 6.0 mph 12.0 mph 78% 0.00 in
03:40 44.0 °F 37.6 °F 29.84 in West 6.0 mph 13.0 mph 78% 0.00 in
03:45 43.9 °F 37.5 °F 29.84 in West 9.0 mph 10.0 mph 78% 0.00 in
03:50 43.8 °F 37.4 °F 29.85 in West 5.0 mph 12.0 mph 78% 0.00 in
03:55 43.8 °F 37.4 °F 29.85 in West 7.0 mph 9.0 mph 78% 0.00 in
04:00 43.8 °F 37.4 °F 29.85 in NW 7.0 mph 11.0 mph 78% 0.00 in
04:05 43.7 °F 37.3 °F 29.86 in West 7.0 mph 14.0 mph 78% 0.00 in
04:10 43.6 °F 37.5 °F 29.86 in WNW 7.0 mph 14.0 mph 79% 0.00 in
04:15 43.5 °F 37.4 °F 29.86 in West 6.0 mph 12.0 mph 79% 0.00 in
04:20 43.5 °F 37.4 °F 29.86 in WNW 9.0 mph 18.0 mph 79% 0.00 in
04:25 43.5 °F 37.4 °F 29.86 in West 7.0 mph 12.0 mph 79% 0.00 in
04:30 43.4 °F 37.3 °F 29.87 in West 6.0 mph 13.0 mph 79% 0.00 in
04:35 43.4 °F 37.3 °F 29.87 in WNW 7.0 mph 13.0 mph 79% 0.00 in
04:40 43.4 °F 37.3 °F 29.87 in West 6.0 mph 12.0 mph 79% 0.00 in
04:45 43.3 °F 37.2 °F 29.88 in West 6.0 mph 12.0 mph 79% 0.00 in
04:50 43.2 °F 37.1 °F 29.88 in West 6.0 mph 11.0 mph 79% 0.00 in
04:55 43.2 °F 37.1 °F 29.88 in WNW 6.0 mph 12.0 mph 79% 0.00 in
05:00 43.2 °F 37.1 °F 29.88 in West 2.0 mph 12.0 mph 79% 0.00 in
05:05 43.1 °F 37.0 °F 29.89 in West 6.0 mph 13.0 mph 79% 0.00 in
05:10 43.1 °F 37.0 °F 29.89 in West 3.0 mph 11.0 mph 79% 0.00 in
05:15 43.2 °F 37.4 °F 29.89 in WNW 4.0 mph 11.0 mph 80% 0.00 in
05:20 43.1 °F 37.3 °F 29.90 in WNW 5.0 mph 8.0 mph 80% 0.00 in
05:25 43.0 °F 37.6 °F 29.90 in WNW 6.0 mph 11.0 mph 81% 0.00 in
05:30 42.8 °F 38.0 °F 29.90 in West 2.0 mph 8.0 mph 83% 0.01 in
05:35 42.5 °F 38.0 °F 29.91 in WNW 4.0 mph 12.0 mph 84% 0.01 in
05:40 41.9 °F 37.7 °F 29.91 in NW 5.0 mph 12.0 mph 85% 0.02 in
05:45 41.2 °F 36.7 °F 29.91 in NW 5.0 mph 13.0 mph 84% 0.02 in
05:50 40.9 °F 36.7 °F 29.92 in WNW 5.0 mph 13.0 mph 85% 0.02 in
05:55 40.7 °F 36.8 °F 29.92 in NW 4.0 mph 10.0 mph 86% 0.02 in
06:00 40.6 °F 36.7 °F 29.93 in WNW 5.0 mph 8.0 mph 86% 0.02 in
06:05 40.6 °F 36.7 °F 29.93 in West 2.0 mph 7.0 mph 86% 0.02 in
06:10 40.6 °F 36.7 °F 29.93 in West 3.0 mph 8.0 mph 86% 0.02 in
06:15 40.5 °F 36.6 °F 29.93 in NW 4.0 mph 6.0 mph 86% 0.02 in
06:20 40.4 °F 36.2 °F 29.94 in NW 7.0 mph 9.0 mph 85% 0.02 in
06:25 40.5 °F 36.0 °F 29.95 in NW 3.0 mph 7.0 mph 84% 0.02 in
06:30 40.5 °F 35.7 °F 29.94 in WNW 5.0 mph 11.0 mph 83% 0.01 in
06:35 40.6 °F 35.2 °F 29.95 in NW 4.0 mph 11.0 mph 81% 0.01 in
06:40 40.5 °F 34.5 °F 29.95 in NNW 4.0 mph 12.0 mph 79% 0.00 in
06:45 40.5 °F 34.2 °F 29.96 in NW 5.0 mph 13.0 mph 78% 0.00 in
06:50 40.5 °F 34.2 °F 29.96 in NW 5.0 mph 13.0 mph 78% 0.00 in
06:55 40.6 °F 34.3 °F 29.96 in NW 5.0 mph 11.0 mph 78% 0.00 in
07:00 40.6 °F 34.0 °F 29.96 in NW 2.0 mph 11.0 mph 77% 0.00 in
07:05 40.7 °F 34.0 °F 29.97 in NW 5.0 mph 11.0 mph 77% 0.00 in
07:10 40.8 °F 34.1 °F 29.97 in WSW 7.0 mph 9.0 mph 77% 0.00 in
07:15 41.0 °F 34.3 °F 29.98 in NW 7.0 mph 8.0 mph 77% 0.00 in
07:20 41.2 °F 34.5 °F 29.98 in West 5.0 mph 10.0 mph 77% 0.00 in
07:25 41.3 °F 35.0 °F 29.99 in WNW 3.0 mph 9.0 mph 78% 0.00 in
07:30 41.4 °F 34.7 °F 29.99 in NNW 4.0 mph 8.0 mph 77% 0.00 in
07:35 41.4 °F 34.7 °F 29.99 in WNW 5.0 mph 10.0 mph 77% 0.00 in
07:40 41.5 °F 34.5 °F 29.99 in WNW 5.0 mph 10.0 mph 76% 0.00 in
07:45 41.4 °F 34.1 °F 29.99 in NW 5.0 mph 11.0 mph 75% 0.00 in
07:50 41.6 °F 34.3 °F 29.99 in NW 5.0 mph 11.0 mph 75% 0.00 in
07:55 41.7 °F 34.4 °F 29.99 in WNW 4.0 mph 11.0 mph 75% 0.00 in
08:00 41.9 °F 34.2 °F 30.00 in WNW 4.0 mph 8.0 mph 74% 0.00 in
08:05 42.0 °F 34.3 °F 30.00 in WNW 3.0 mph 8.0 mph 74% 0.00 in
08:10 42.3 °F 34.9 °F 30.00 in WNW 3.0 mph 8.0 mph 75% 0.00 in
08:15 42.2 °F 34.5 °F 30.00 in WNW 4.0 mph 7.0 mph 74% 0.00 in
08:20 42.2 °F 34.5 °F 30.01 in WNW 5.0 mph 12.0 mph 74% 0.00 in
08:25 42.2 °F 34.8 °F 30.01 in WNW 3.0 mph 9.0 mph 75% 0.00 in
08:30 42.5 °F 34.8 °F 30.01 in WNW 7.0 mph 7.0 mph 74% 0.00 in
08:35 42.5 °F 34.5 °F 30.02 in NW 3.0 mph 8.0 mph 73% 0.00 in
08:40 42.5 °F 34.8 °F 30.02 in NW 4.0 mph 11.0 mph 74% 0.00 in
08:45 43.3 °F 35.9 °F 30.02 in NW 5.0 mph 11.0 mph 75% 0.00 in
08:50 44.4 °F 35.2 °F 30.02 in NW 4.0 mph 9.0 mph 70% 0.00 in
08:55 45.4 °F 35.8 °F 30.02 in NW 5.0 mph 12.0 mph 69% 0.00 in
09:00 45.2 °F 35.6 °F 30.02 in WNW 3.0 mph 10.0 mph 69% 0.00 in
09:05 45.9 °F 35.9 °F 30.02 in WNW 6.0 mph 8.0 mph 68% 0.00 in
09:10 46.2 °F 36.2 °F 30.03 in NW 5.0 mph 12.0 mph 68% 0.00 in
09:15 45.9 °F 35.6 °F 30.03 in West 5.0 mph 11.0 mph 67% 0.00 in
09:20 45.0 °F 35.8 °F 30.03 in WNW 8.0 mph 9.0 mph 70% 0.00 in
09:25 45.7 °F 36.1 °F 30.03 in SSW 5.0 mph 10.0 mph 69% 0.00 in
09:30 45.7 °F 36.1 °F 30.03 in West 3.0 mph 12.0 mph 69% 0.00 in
09:35 45.1 °F 35.2 °F 30.04 in West 6.0 mph 11.0 mph 68% 0.00 in
09:40 44.9 °F 35.7 °F 30.04 in West 6.0 mph 11.0 mph 70% 0.00 in
09:45 45.0 °F 36.2 °F 30.04 in West 5.0 mph 11.0 mph 71% 0.00 in
09:50 46.4 °F 35.7 °F 30.05 in WNW 5.0 mph 11.0 mph 66% 0.00 in
09:55 46.7 °F 35.6 °F 30.05 in NW 4.0 mph 9.0 mph 65% 0.00 in
10:00 48.3 °F 37.5 °F 30.05 in NNW 3.0 mph 11.0 mph 66% 0.00 in
10:05 47.1 °F 35.5 °F 30.05 in WNW 9.0 mph 11.0 mph 64% 0.00 in
10:10 46.0 °F 34.9 °F 30.06 in WNW 7.0 mph 13.0 mph 65% 0.00 in
10:15 47.1 °F 36.3 °F 30.06 in WNW 6.0 mph 13.0 mph 66% 0.00 in
10:20 47.2 °F 36.0 °F 30.06 in WNW 5.0 mph 12.0 mph 65% 0.00 in
10:25 47.9 °F 35.9 °F 30.06 in NW 5.0 mph 12.0 mph 63% 0.00 in
10:30 48.7 °F 37.1 °F 30.07 in West 2.0 mph 10.0 mph 64% 0.00 in
10:35 48.9 °F 37.3 °F 30.08 in NNE 5.0 mph 10.0 mph 64% 0.00 in
10:40 47.7 °F 36.9 °F 30.08 in WSW 3.0 mph 15.0 mph 66% 0.00 in
10:45 48.9 °F 37.6 °F 30.08 in WNW 5.0 mph 15.0 mph 65% 0.00 in
10:50 47.6 °F 35.2 °F 30.09 in WNW 6.0 mph 12.0 mph 62% 0.00 in
10:55 49.6 °F 39.8 °F 30.09 in WNW 6.0 mph 11.0 mph 69% 0.00 in
11:00 48.9 °F 36.4 °F 30.09 in WNW 9.0 mph 10.0 mph 62% 0.00 in
11:05 49.6 °F 37.1 °F 30.10 in NNW 3.0 mph 10.0 mph 62% 0.00 in
11:10 49.8 °F 38.1 °F 30.10 in WNW 6.0 mph 10.0 mph 64% 0.00 in
11:15 49.4 °F 36.5 °F 30.11 in WNW 5.0 mph 14.0 mph 61% 0.00 in
11:20 49.8 °F 38.1 °F 30.12 in West 6.0 mph 14.0 mph 64% 0.00 in
11:25 51.0 °F 38.4 °F 30.12 in WNW 6.0 mph 13.0 mph 62% 0.00 in
11:30 51.4 °F 38.4 °F 30.13 in WNW 9.0 mph 12.0 mph 61% 0.00 in
11:35 50.5 °F 36.7 °F 30.12 in WNW 2.0 mph 12.0 mph 59% 0.00 in
11:40 50.9 °F 37.9 °F 30.11 in WNW 6.0 mph 12.0 mph 61% 0.00 in
11:45 50.4 °F 35.7 °F 30.12 in NW 5.0 mph 12.0 mph 57% 0.00 in
11:50 50.5 °F 37.1 °F 30.12 in WNW 6.0 mph 10.0 mph 60% 0.00 in
11:55 51.3 °F 37.4 °F 30.12 in West 6.0 mph 12.0 mph 59% 0.00 in
12:00 51.0 °F 37.2 °F 30.13 in WNW 6.0 mph 12.0 mph 59% 0.00 in
12:05 51.6 °F 36.4 °F 30.13 in West 5.0 mph 11.0 mph 56% 0.00 in
12:10 52.2 °F 38.3 °F 30.13 in West 6.0 mph 13.0 mph 59% 0.00 in
12:15 51.8 °F 38.3 °F 30.13 in WNW 5.0 mph 13.0 mph 60% 0.00 in
12:20 52.3 °F 37.1 °F 30.14 in WNW 5.0 mph 10.0 mph 56% 0.00 in
12:25 53.3 °F 38.0 °F 30.14 in West 5.0 mph 12.0 mph 56% 0.00 in
12:30 50.8 °F 39.1 °F 30.14 in WSW 6.0 mph 16.0 mph 64% 0.00 in
12:35 50.8 °F 39.5 °F 30.15 in West 7.0 mph 16.0 mph 65% 0.00 in
12:40 50.7 °F 39.4 °F 30.15 in SW 8.0 mph 16.0 mph 65% 0.00 in
12:45 50.3 °F 39.4 °F 30.15 in SW 14.0 mph 18.0 mph 66% 0.00 in
12:50 49.9 °F 39.0 °F 30.15 in WNW 7.0 mph 15.0 mph 66% 0.00 in
12:55 50.7 °F 39.4 °F 30.15 in WSW 11.0 mph 16.0 mph 65% 0.00 in
13:00 50.4 °F 39.1 °F 30.15 in SW 9.0 mph 17.0 mph 65% 0.00 in
13:05 51.4 °F 40.4 °F 30.15 in WSW 5.0 mph 16.0 mph 66% 0.00 in
13:10 51.5 °F 40.1 °F 30.15 in SW 7.0 mph 16.0 mph 65% 0.00 in
13:15 51.9 °F 40.1 °F 30.15 in SW 7.0 mph 15.0 mph 64% 0.00 in
13:20 51.0 °F 39.6 °F 30.15 in WSW 8.0 mph 17.0 mph 65% 0.00 in
13:25 50.6 °F 39.3 °F 30.15 in SW 9.0 mph 18.0 mph 65% 0.00 in
13:30 50.6 °F 40.0 °F 30.15 in SW 8.0 mph 18.0 mph 67% 0.00 in
13:35 51.2 °F 40.2 °F 30.15 in SW 9.0 mph 18.0 mph 66% 0.00 in
13:40 51.9 °F 40.5 °F 30.15 in SSW 10.0 mph 17.0 mph 65% 0.00 in
13:45 51.2 °F 39.4 °F 30.15 in WSW 8.0 mph 17.0 mph 64% 0.00 in
13:50 51.2 °F 39.8 °F 30.15 in SW 10.0 mph 16.0 mph 65% 0.00 in
13:55 51.0 °F 39.2 °F 30.15 in WSW 13.0 mph 15.0 mph 64% 0.00 in
14:00 51.6 °F 40.2 °F 30.15 in SW 6.0 mph 17.0 mph 65% 0.00 in
14:05 51.8 °F 40.0 °F 30.15 in SW 10.0 mph 15.0 mph 64% 0.00 in
14:10 51.0 °F 39.2 °F 30.15 in WSW 9.0 mph 19.0 mph 64% 0.00 in
14:15 51.0 °F 39.2 °F 30.15 in SW 9.0 mph 19.0 mph 64% 0.00 in
14:20 51.4 °F 39.6 °F 30.15 in WSW 9.0 mph 15.0 mph 64% 0.00 in
14:30 52.0 °F 41.0 °F 30.16 in WSW 9.0 mph 13.0 mph 66% 0.00 in
14:35 51.8 °F 39.6 °F 30.15 in SW 11.0 mph 15.0 mph 63% 0.00 in
14:40 51.5 °F 39.7 °F 30.16 in WSW 10.0 mph 16.0 mph 64% 0.00 in
14:45 51.4 °F 39.2 °F 30.16 in SW 9.0 mph 16.0 mph 63% 0.00 in
14:50 51.1 °F 38.9 °F 30.16 in WSW 9.0 mph 16.0 mph 63% 0.00 in
14:55 52.4 °F 41.0 °F 30.16 in WSW 8.0 mph 16.0 mph 65% 0.00 in
15:00 52.3 °F 39.7 °F 30.16 in WSW 7.0 mph 16.0 mph 62% 0.00 in
15:05 53.0 °F 40.7 °F 30.16 in SSW 8.0 mph 14.0 mph 63% 0.00 in
15:10 53.1 °F 40.0 °F 30.15 in West 7.0 mph 13.0 mph 61% 0.00 in
15:15 53.3 °F 41.4 °F 30.15 in WSW 7.0 mph 13.0 mph 64% 0.00 in
15:20 52.4 °F 40.2 °F 30.15 in WSW 10.0 mph 14.0 mph 63% 0.00 in
15:25 52.7 °F 39.6 °F 30.15 in SW 8.0 mph 15.0 mph 61% 0.00 in
15:30 52.6 °F 39.1 °F 30.15 in West 5.0 mph 13.0 mph 60% 0.00 in
15:35 52.5 °F 39.4 °F 30.15 in West 8.0 mph 13.0 mph 61% 0.00 in
15:50 53.1 °F 39.6 °F 30.15 in SW 7.0 mph 13.0 mph 60% 0.00 in
15:55 52.9 °F 39.0 °F 30.15 in WSW 7.0 mph 13.0 mph 59% 0.00 in
16:00 52.9 °F 39.8 °F 30.15 in WSW 7.0 mph 14.0 mph 61% 0.00 in
16:05 53.2 °F 40.1 °F 30.16 in WSW 7.0 mph 17.0 mph 61% 0.00 in
16:10 52.8 °F 38.9 °F 30.15 in West 6.0 mph 14.0 mph 59% 0.00 in
16:15 52.1 °F 39.5 °F 30.15 in SW 9.0 mph 14.0 mph 62% 0.00 in
16:20 51.9 °F 38.9 °F 30.15 in SW 8.0 mph 17.0 mph 61% 0.00 in
16:25 51.9 °F 39.3 °F 30.15 in WSW 8.0 mph 14.0 mph 62% 0.00 in
16:30 52.8 °F 39.7 °F 30.15 in WSW 7.0 mph 13.0 mph 61% 0.00 in
16:35 52.0 °F 38.1 °F 30.14 in WSW 8.0 mph 15.0 mph 59% 0.00 in
16:40 51.4 °F 38.0 °F 30.14 in WNW 7.0 mph 17.0 mph 60% 0.00 in
16:45 51.4 °F 38.4 °F 30.14 in WSW 8.0 mph 17.0 mph 61% 0.00 in
16:50 51.7 °F 37.8 °F 30.14 in WSW 4.0 mph 12.0 mph 59% 0.00 in
17:00 50.7 °F 38.1 °F 30.14 in WSW 8.0 mph 15.0 mph 62% 0.00 in
17:05 51.1 °F 38.5 °F 30.14 in SW 8.0 mph 14.0 mph 62% 0.00 in
17:10 51.4 °F 38.8 °F 30.14 in WSW 7.0 mph 13.0 mph 62% 0.00 in
17:15 51.5 °F 39.3 °F 30.14 in SW 3.0 mph 11.0 mph 63% 0.00 in
17:20 51.6 °F 39.4 °F 30.13 in SW 8.0 mph 13.0 mph 63% 0.00 in
17:25 50.8 °F 37.8 °F 30.13 in SW 7.0 mph 12.0 mph 61% 0.00 in
17:30 50.6 °F 37.6 °F 30.13 in WSW 5.0 mph 13.0 mph 61% 0.00 in
17:35 51.2 °F 38.6 °F 30.14 in WSW 5.0 mph 13.0 mph 62% 0.00 in
17:40 50.9 °F 37.9 °F 30.14 in SW 4.0 mph 13.0 mph 61% 0.00 in
17:45 51.3 °F 39.1 °F 30.14 in WSW 6.0 mph 13.0 mph 63% 0.00 in
17:50 50.8 °F 37.0 °F 30.14 in WSW 6.0 mph 13.0 mph 59% 0.00 in
17:55 50.8 °F 37.4 °F 30.14 in SW 7.0 mph 13.0 mph 60% 0.00 in
18:00 50.7 °F 37.3 °F 30.14 in SW 7.0 mph 14.0 mph 60% 0.00 in
18:05 50.7 °F 36.9 °F 30.14 in SW 7.0 mph 14.0 mph 59% 0.00 in
18:10 50.5 °F 36.7 °F 30.14 in WSW 5.0 mph 10.0 mph 59% 0.00 in
18:15 50.4 °F 37.0 °F 30.14 in SW 6.0 mph 13.0 mph 60% 0.00 in
18:20 50.4 °F 37.0 °F 30.14 in WSW 6.0 mph 13.0 mph 60% 0.00 in
18:25 50.3 °F 36.9 °F 30.14 in WSW 6.0 mph 15.0 mph 60% 0.00 in
18:30 50.1 °F 36.7 °F 30.15 in West 9.0 mph 13.0 mph 60% 0.00 in
18:35 50.2 °F 37.3 °F 30.15 in SW 4.0 mph 13.0 mph 61% 0.00 in
18:40 50.2 °F 37.3 °F 30.15 in WSW 5.0 mph 11.0 mph 61% 0.00 in
18:45 50.1 °F 36.7 °F 30.15 in SW 6.0 mph 11.0 mph 60% 0.00 in
18:50 49.7 °F 36.8 °F 30.16 in SW 7.0 mph 16.0 mph 61% 0.00 in
18:55 49.5 °F 36.6 °F 30.16 in WSW 7.0 mph 16.0 mph 61% 0.00 in
19:00 49.4 °F 36.9 °F 30.16 in WSW 6.0 mph 12.0 mph 62% 0.00 in
19:05 49.1 °F 36.6 °F 30.16 in WSW 6.0 mph 13.0 mph 62% 0.00 in
19:10 49.0 °F 36.9 °F 30.16 in WSW 7.0 mph 14.0 mph 63% 0.00 in
19:15 49.0 °F 36.5 °F 30.16 in WSW 6.0 mph 14.0 mph 62% 0.00 in
19:20 48.9 °F 36.9 °F 30.16 in WSW 5.0 mph 12.0 mph 63% 0.00 in
19:25 48.6 °F 36.6 °F 30.16 in WSW 6.0 mph 12.0 mph 63% 0.00 in
19:30 48.4 °F 36.4 °F 30.16 in West 9.0 mph 12.0 mph 63% 0.00 in
19:35 48.2 °F 36.2 °F 30.17 in WSW 5.0 mph 10.0 mph 63% 0.00 in
19:40 48.1 °F 36.1 °F 30.17 in SW 7.0 mph 9.0 mph 63% 0.00 in
19:45 48.0 °F 36.0 °F 30.17 in WSW 3.0 mph 13.0 mph 63% 0.00 in
19:50 47.8 °F 35.8 °F 30.18 in WSW 5.0 mph 13.0 mph 63% 0.00 in
19:55 47.6 °F 35.6 °F 30.18 in WSW 4.0 mph 8.0 mph 63% 0.00 in
20:00 47.5 °F 35.5 °F 30.19 in WSW 4.0 mph 8.0 mph 63% 0.00 in
20:05 47.4 °F 35.4 °F 30.20 in West 4.0 mph 9.0 mph 63% 0.00 in
20:10 47.3 °F 35.3 °F 30.20 in WSW 4.0 mph 11.0 mph 63% 0.00 in
20:15 47.3 °F 35.3 °F 30.20 in WSW 5.0 mph 10.0 mph 63% 0.00 in
20:20 47.1 °F 35.1 °F 30.20 in WSW 5.0 mph 10.0 mph 63% 0.00 in
20:25 47.1 °F 35.5 °F 30.21 in WSW 4.0 mph 9.0 mph 64% 0.00 in
20:30 47.2 °F 35.2 °F 30.22 in WSW 5.0 mph 12.0 mph 63% 0.00 in
20:35 47.1 °F 35.1 °F 30.22 in West 3.0 mph 7.0 mph 63% 0.00 in
20:40 47.0 °F 35.0 °F 30.22 in West 5.0 mph 10.0 mph 63% 0.00 in
20:45 47.0 °F 35.4 °F 30.22 in West 4.0 mph 10.0 mph 64% 0.00 in
20:50 47.0 °F 35.0 °F 30.22 in WSW 4.0 mph 10.0 mph 63% 0.00 in
20:55 47.0 °F 35.0 °F 30.22 in WSW 4.0 mph 9.0 mph 63% 0.00 in
21:00 47.0 °F 35.4 °F 30.22 in WSW 5.0 mph 10.0 mph 64% 0.00 in
21:05 46.9 °F 35.4 °F 30.23 in West 5.0 mph 8.0 mph 64% 0.00 in
21:10 46.9 °F 35.4 °F 30.23 in WSW 2.0 mph 7.0 mph 64% 0.00 in
21:15 46.9 °F 35.4 °F 30.23 in WSW 3.0 mph 8.0 mph 64% 0.00 in
21:20 47.0 °F 35.4 °F 30.24 in WSW 4.0 mph 8.0 mph 64% 0.00 in
21:30 47.0 °F 35.4 °F 30.24 in WSW 4.0 mph 8.0 mph 64% 0.00 in
21:35 47.0 °F 35.4 °F 30.23 in WSW 3.0 mph 7.0 mph 64% 0.00 in
21:40 46.9 °F 35.4 °F 30.23 in SW 1.0 mph 7.0 mph 64% 0.00 in
21:45 46.6 °F 35.5 °F 30.23 in WSW 2.0 mph 7.0 mph 65% 0.00 in
21:50 46.6 °F 35.5 °F 30.23 in WSW 2.0 mph 6.0 mph 65% 0.00 in
21:55 46.5 °F 35.4 °F 30.23 in WSW 2.0 mph 6.0 mph 65% 0.00 in
22:00 46.2 °F 35.5 °F 30.23 in WSW 2.0 mph 5.0 mph 66% 0.00 in
22:05 45.9 °F 35.6 °F 30.23 in SW 3.0 mph 4.0 mph 67% 0.00 in
22:10 45.5 °F 35.5 °F 30.23 in Calm   3.0 mph 68% 0.00 in
22:15 44.9 °F 35.7 °F 30.23 in SW 1.0 mph 3.0 mph 70% 0.00 in
22:20 44.9 °F 36.1 °F 30.23 in Calm   4.0 mph 71% 0.00 in
22:25 44.9 °F 36.1 °F 30.23 in SW 2.0 mph 5.0 mph 71% 0.00 in
22:30 45.1 °F 36.6 °F 30.23 in SSW 2.0 mph 4.0 mph 72% 0.00 in
22:35 45.1 °F 36.6 °F 30.23 in SSW 2.0 mph 4.0 mph 72% 0.00 in
22:40 44.8 °F 36.7 °F 30.23 in Calm   4.0 mph 73% 0.00 in
22:45 44.7 °F 36.9 °F 30.23 in SSW 2.0 mph 4.0 mph 74% 0.00 in
22:50 44.6 °F 37.2 °F 30.24 in SSW 2.0 mph 6.0 mph 75% 0.00 in
22:55 44.8 °F 37.0 °F 30.24 in SSW 2.0 mph 6.0 mph 74% 0.00 in
23:00 44.5 °F 37.1 °F 30.23 in SW 2.0 mph 4.0 mph 75% 0.00 in
23:05 44.4 °F 36.6 °F 30.23 in SW 1.0 mph 4.0 mph 74% 0.00 in
23:10 44.1 °F 36.7 °F 30.23 in SW 1.0 mph 3.0 mph 75% 0.00 in
23:15 43.9 °F 36.8 °F 30.23 in Calm   2.0 mph 76% 0.00 in
23:20 43.7 °F 36.6 °F 30.23 in Calm   2.0 mph 76% 0.00 in
23:30 43.1 °F 36.7 °F 30.23 in Calm     78% 0.00 in
23:35 42.9 °F 36.5 °F 30.23 in Calm     78% 0.00 in
23:40 42.5 °F 36.4 °F 30.22 in Calm     79% 0.00 in
23:45 42.5 °F 36.4 °F 30.22 in Calm   3.0 mph 79% 0.00 in
23:50 42.6 °F 36.2 °F 30.22 in Calm   3.0 mph 78% 0.00 in
23:55 42.5 °F 36.1 °F 30.21 in Calm   2.0 mph 78% 0.00 in
Buffalo, New York, USA
Compliments of Weather Underground - 2.25 mb